Torna al catalogo

STARLINK-31078

AttivoComunicazioniVLEO
NORAD 58638·PAYLOAD·🇺🇸 United States

Lanciato Dec 23, 2023 da Cape Canaveral Space Force Station

Loading…

Prossimi Passaggi (prossime 24 ore)

TLE

AggiornatoSource: CelesTrak SupGP

Epoca: Sep 14, 2026, 20:57 UTC

1 58638C 23203W   26257.87340278  .00009531  00000+0  34525-3 0  2577
2 58638  43.0026  78.8845 0001259 273.0409  38.6421 15.27568842    12

Traccia STARLINK-31078 in tempo reale con AllMySat

Download on the App Store